Location: Newark
(37.9800°N, 91.3000°W)
Time: 19:41:18
(UTC+00:00)

NOAA 19 - Pass Details

Date: 13 December 2019
Orbit: 840 x 862 km, 99.2° (Epoch: 28 January)

Event Time Altitude Azimuth Distance (km) Brightness Sun altitude
Rises 00:12:19 0° 207° (SSW) 3,418 9.0 -16.5°
Reaches altitude 10° 00:15:30 10° 226° (SW) 2,489 8.6 -17.1°
Maximum altitude 00:19:06 18° 267° (W) 2,013 8.2 -17.8°
Drops below altitude 10° 00:22:43 10° 308° (NW) 2,504 8.1 -18.4°
Sets 00:25:57 0° 328° (NNW) 3,446 8.6 -19.1°
